Location: ??????
(41.3794°N, 22.5014°E)
Time: 07:20:24
(UTC+00:00)

Cosmos 1633 Rocket - Pass Details

Date: 30 November 2020
Orbit: 607 x 624 km, 82.5° (Epoch: 17 January)

Event Time Altitude Azimuth Distance (km) Brightness Sun altitude
Rises 16:09:37 0° 350° (N) 2,892 6.4 -12.5°
Reaches altitude 10° 16:11:51 10° 348° (NNW) 1,979 5.6 -12.9°
Maximum altitude 16:16:13 74° 265° (W) 641 3.3 -13.7°
Drops below altitude 10° 16:20:32 10° 180° (S) 1,954 5.8 -14.5°
Sets 16:22:44 0° 178° (S) 2,852 6.7 -14.9°
